Regional Weather Roundup
Issued by NWS

Home | Current Version | Previous Version | Graphics & Text | Print | Product List | Glossary On
Versions: 1 2 3 4 5 6 7 8 9 10 11 12 13 14 15 16 17 18 19 20 21 22 23 24 25 26 27 28 29 30 31 32 33 34 35 36 37 38 39 40 41 42 43 44 45 46 47 48 49 50
000
ASUS45 KBOI 060710
RWRID

IDAHO REGIONAL WEATHER ROUNDUP
NATIONAL WEATHER SERVICE BOISE ID
100 AM MDT MON JUL 06 2015

NOTE: "FAIR" INDICATES FEW OR NO CLOUDS BELOW 12000 FEET
WITH NO SIGNIFICANT WEATHER AND/OR OBSTRUCTIONS TO VISIBILITY

IDZ012-014-060800-
SOUTHWEST IDAHO


CITY           SKY/WX    TMP DP  RH WIND       PRES   REMARKS
BOISE          PTCLDY    72  55  55 SE6       29.98R
CALDWELL       PTCLDY    68  50  52 CALM      29.98R
MOUNTAIN HOME  CLOUDY    71  48  44 VRB2      29.99R
$$

IDZ016-017-060800-
SOUTHCENTRAL IDAHO


CITY           SKY/WX    TMP DP  RH WIND       PRES   REMARKS
BURLEY         PTCLDY    65  52  62 W6        30.05R
JEROME         PTCLDY    65  54  67 S8        30.06R
TWIN FALLS     PTCLDY    68  51  54 S12       30.04R
$$

IDZ019>023-060800-
SOUTHEAST IDAHO


CITY           SKY/WX    TMP DP  RH WIND       PRES   REMARKS
IDAHO FALLS    CLOUDY    65  55  70 E12       30.10R
POCATELLO      CLOUDY    71  49  45 SW5       30.09R
REXBURG        CLOUDY    63  50  62 E12       30.13R
$$

IDZ006-010-011-018-031-032-060800-
CENTRAL IDAHO MOUNTAINS


CITY           SKY/WX    TMP DP  RH WIND       PRES   REMARKS
MCCALL         PTCLDY    60  51  72 CALM      30.11R
HAILEY         CLOUDY    63  43  48 NW8       30.13R
STANLEY          N/A     49  42  77 CALM      30.24R
SALMON         MOCLDY    66  52  59 SE5       30.07R
CHALLIS        CLOUDY    65  44  46 CALM      30.11R
$$

IDZ002-004-006-007-026-060800-
NORTHERN IDAHO


CITY           SKY/WX    TMP DP  RH WIND       PRES   REMARKS
LEWISTON       CLEAR     79  50  36 CALM      29.92R
LOWELL           N/A     73  56  54 SW5       29.93R
COEUR D`ALENE  CLEAR     66  43  42 NE12      30.04S
MULLAN PASS    CLEAR     48  40  73 E9        30.22R
$$


USA.gov is the U.S. government's official web portal to all federal, state and local government web resources and services.